Location: Dompnac
(44.5644°N, 4.1026°E)
Time: 22:14:10
(UTC+00:00)

Cosmos 1626 - Pass Details

Date: 18 January 2021
Orbit: 490 x 494 km, 82.5° (Epoch: 25 February)

Event Time Altitude Azimuth Distance (km) Brightness Sun altitude
Rises 17:19:52 0° 190° (S) 2,563 6.2 -8.3°
Reaches altitude 10° 17:21:58 10° 191° (SSW) 1,686 5.3 -8.7°
Maximum altitude 17:25:40 79° 279° (W) 509 2.2 -9.3°
Drops below altitude 10° 17:29:23 10° 6° (N) 1,699 4.6 -9.9°
Sets 17:31:30 0° 8° (N) 2,585 5.5 -10.3°
